Starlink 32439

operational
NORAD ID: 61665 Int'l Des: 2024-193 Owner: SPXS Country: US Constellation: starlink
LEOCIRCULAR

关于 Starlink 32439

正在加载描述...

实时位置

正在加载3D地球...

即将过境

高度历史

Altitude vs Time

uPlot chart will show altitude changes over time

两行轨道根数

1 61665U 24193E 25308.29598740 .00004125 00000-0 15140-3 0 9991
2 61665 53.1616 313.7762 0001100 94.2720 265.8407 15.30182523 57322
Epoch: Nov 4, 2025 • Age: 23 hours

当前状态

高度 476.9 km
速度 7.63 km/s
星下点 -4.02°S, 162.54°E
发射日期 Oct 26, 2024
运行时间 1 years
类型 internet

技术详情

分类 Payload
质量 730.00 kg
干质量 700.00 kg
总质量 730.00 kg
长度 0.30 m
直径 4.10 m
跨度 29.00 m
形状 Box + pan
制造商 SPXS
平台类型 Starlink V2M
阶段状态 In Orbit
所有者/国家 SPXS/US

大型星座

Loading constellations...